FW5647 Weather Reports


Display with metric or nautical units.
time (UTC)temp
F
wind
direction
speed
MPH
gust
MPH
rain 1hr
in
rain 24hr
in
rain mn
in
humidity
%
barometer
mb
20240521171535 81 307 3.0 12.0 0.00 0.00 0.00 65 1011.4
20240521170018 81 159 5.0 11.0 0.00 0.00 0.00 63 1011.4
20240521164521 81 271 2.0 9.0 0.00 0.00 0.00 63 1011.3
20240521163022 80 200 4.0 7.0 0.00 0.00 0.00 65 1011.5
20240521161526 79 255 4.0 8.0 0.00 0.00 0.00 66 1011.9
20240521160027 78 197 2.0 7.0 0.00 0.00 0.00 66 1012.1
20240521154520 77 120 2.0 5.0 0.00 0.00 0.00 68 1012.2
20240521153033 76 270 2.0 7.0 0.00 0.00 0.00 69 1012.3
20240521151521 76 355 1.0 6.0 0.00 0.00 0.00 70 1012.1
20240521150021 75 300 2.0 5.0 0.00 0.00 0.00 70 1012.0
20240521144521 75 219 2.0 4.0 0.00 0.00 0.00 71 1012.0
20240521143021 74 37 1.0 4.0 0.00 0.00 0.00 74 1011.9
20240521141519 73 263 1.0 5.0 0.00 0.00 0.00 74 1012.0
20240521140029 71 269 2.0 5.0 0.00 0.00 0.00 76 1012.2
20240521134527 69 330 2.0 5.0 0.00 0.00 0.00 79 1012.4
20240521133023 69 355 1.0 5.0 0.00 0.00 0.00 80 1012.4
20240521131520 68 288 3.0 6.0 0.00 0.00 0.00 81 1012.8
20240521130022 68 20 2.0 5.0 0.00 0.00 0.00 82 1012.5
20240521124521 68 347 1.0 4.0 0.00 0.00 0.00 84 1012.5
20240521123024 66 241 2.0 5.0 0.00 0.00 0.00 85 1012.5
20240521121528 66 233 2.0 7.0 0.00 0.00 0.00 87 1012.8
20240521120037 65 323 1.0 6.0 0.00 0.00 0.00 88 1012.7
20240521114520 64 249 2.0 8.0 0.00 0.00 0.00 89 1012.5
20240521113023 64 261 2.0 6.0 0.00 0.00 0.00 89 1012.4
20240521111525 64 229 2.0 4.0 0.00 0.00 0.00 89 1012.2
20240521110021 64 290 1.0 4.0 0.00 0.00 0.00 89 1011.7
20240521104536 63 0 1.0 4.0 0.00 0.00 0.00 89 1011.4
20240521103019 63 0 0.0 2.0 0.00 0.00 0.00 88 1011.3
20240521101522 64 300 1.0 5.0 0.00 0.00 0.00 87 1011.0
20240521100019 64 255 2.0 8.0 0.00 0.00 0.00 86 1011.0
20240521094517 65 227 2.0 7.0 0.00 0.00 0.00 85 1011.0
20240521093022 65 271 2.0 4.0 0.00 0.00 0.00 84 1011.0
20240521091519 65 257 1.0 3.0 0.00 0.00 0.00 84 1010.9
20240521090017 65 261 1.0 3.0 0.00 0.00 0.00 83 1010.9
20240521084521 65 247 0.0 3.0 0.00 0.00 0.00 82 1011.0
20240521083035 65 0 0.0 3.0 0.00 0.00 0.00 81 1010.9
20240521081532 65 252 0.0 1.0 0.00 0.00 0.00 81 1011.0
20240521080041 66 264 0.0 3.0 0.00 0.00 0.00 79 1011.0
20240521074523 66 285 0.0 3.0 0.00 0.00 0.00 79 1010.9
20240521073021 67 244 1.0 4.0 0.00 0.00 0.00 79 1010.9
20240521071536 66 275 1.0 4.0 0.00 0.00 0.00 80 1010.8
20240521070031 65 236 1.0 3.0 0.00 0.00 0.00 82 1010.8
20240521064535 64 0 0.0 0.0 0.00 0.00 0.00 84 1010.7
20240521063023 65 0 0.0 0.0 0.00 0.00 0.00 84 1010.8
20240521061527 65 0 0.0 1.0 0.00 0.00 0.00 81 1010.7
20240521060032 66 0 0.0 2.0 0.00 0.00 0.00 79 1010.8
20240521054520 67 130 1.0 2.0 0.00 0.00 0.00 77 1011.1
20240521053021 67 109 0.0 2.0 0.00 0.00 0.00 75 1011.3
20240521051526 68 94 0.0 1.0 0.00 0.00 0.00 75 1011.3
20240521050024 68 0 0.0 2.0 0.00 0.00 0.00 74 1011.5
20240521044519 69 0 0.0 3.0 0.00 0.00 0.00 71 1011.5
20240521043018 70 96 1.0 3.0 0.00 0.00 0.00 69 1010.9
20240521041521 70 0 0.0 2.0 0.00 0.00 0.00 67 1011.0
20240521040029 71 161 1.0 3.0 0.00 0.00 0.00 66 1011.1
20240521034519 71 263 1.0 5.0 0.00 0.00 0.00 66 1011.4
20240521033021 71 0 0.0 2.0 0.00 0.00 0.00 66 1011.6
20240521031520 72 215 0.0 4.0 0.00 0.00 0.00 65 1011.8
20240521030018 73 0 0.0 6.0 0.00 0.00 0.00 64 1012.1
20240521024525 73 272 2.0 6.0 0.00 0.00 0.00 66 1012.3
20240521023018 73 0 0.0 9.0 0.00 0.00 0.00 69 1012.5
20240521021521 72 200 3.0 9.0 0.00 0.00 0.00 75 1012.3
20240521020019 71 129 3.0 6.0 0.00 0.00 0.00 75 1011.6
20240521014531 72 91 3.0 6.0 0.00 0.00 0.00 73 1011.3
20240521013018 73 131 2.0 5.0 0.00 0.00 0.00 70 1011.2
20240521011527 74 105 4.0 7.0 0.00 0.00 0.00 68 1010.9
20240521010021 75 129 4.0 8.0 0.00 0.00 0.00 66 1010.8
20240521004525 76 119 2.0 10.0 0.00 0.00 0.00 65 1010.7
20240521003020 76 113 3.0 6.0 0.00 0.00 0.00 66 1010.8
20240521001527 77 108 3.0 10.0 0.00 0.00 0.00 65 1010.9
20240521000025 78 113 5.0 12.0 0.00 0.00 0.00 67 1010.8
20240520234520 79 161 3.0 7.0 0.00 0.00 0.00 70 1010.7
20240520233023 82 39 2.0 3.0 0.00 0.00 0.00 63 1010.4
20240520231518 85 198 1.0 5.0 0.00 0.00 0.00 53 1010.6
20240520230022 85 257 2.0 4.0 0.00 0.00 0.00 53 1011.0
20240520224525 84 221 1.0 6.0 0.00 0.00 0.00 55 1011.1
20240520223018 84 218 2.0 9.0 0.00 0.00 0.00 53 1011.3
20240520221521 85 301 4.0 11.0 0.00 0.00 0.00 51 1011.1
20240520220026 86 208 4.0 14.0 0.00 0.00 0.00 50 1011.2
20240520214518 86 92 5.0 11.0 0.00 0.00 0.00 53 1011.4
20240520213022 85 247 1.0 2.0 0.00 0.00 0.00 65 1011.3
20240520211524 83 115 0.0 4.0 0.00 0.00 0.00 66 1011.4
20240520210021 83 83 0.0 5.0 0.00 0.00 0.00 65 1011.6
20240520204522 80 354 1.0 5.0 0.00 0.00 0.00 69 1011.9
20240520203026 80 37 3.0 6.0 0.00 0.00 0.00 70 1012.2
20240520201540 80 41 2.0 6.0 0.00 0.00 0.00 69 1012.4
20240520200020 81 347 3.0 9.0 0.00 0.00 0.00 66 1012.3
20240520194524 83 41 2.0 7.0 0.00 0.00 0.00 62 1012.1
20240520193021 87 225 1.0 6.0 0.00 0.00 0.00 53 1012.0
20240520191540 86 248 4.0 10.0 0.00 0.00 0.00 53 1011.9
20240520190025 85 279 2.0 7.0 0.00 0.00 0.00 56 1012.0
20240520184526 85 323 3.0 7.0 0.00 0.00 0.00 57 1012.4
20240520183020 86 240 4.0 10.0 0.00 0.00 0.00 53 1012.5
20240520181525 86 172 4.0 9.0 0.00 0.00 0.00 54 1012.5
20240520180025 85 224 5.0 12.0 0.00 0.00 0.00 57 1013.1
20240520174519 85 239 4.0 13.0 0.00 0.00 0.00 56 1013.2
20240520173022 84 290 3.0 12.0 0.00 0.00 0.00 57 1013.3